TimeCDT,TemperatureF,Dew PointF,Humidity,Sea Level PressureIn,VisibilityMPH,Wind Direction,Wind SpeedMPH,Gust SpeedMPH,PrecipitationIn,Events,Conditions,WindDirDegrees,DateUTC
12:38 AM,44.6,37.4,76,29.85,10.0,East,10.4,-,N/A,,Overcast,80,2013-03-23 05:38:00
12:58 AM,44.2,38.1,79,29.85,10.0,East,6.9,-,N/A,,Overcast,90,2013-03-23 05:58:00
1:58 AM,44.2,38.1,79,29.85,10.0,East,6.9,-,N/A,,Overcast,90,2013-03-23 06:58:00
2:23 AM,44.6,37.4,76,29.82,10.0,East,11.5,-,N/A,,Overcast,90,2013-03-23 07:23:00
2:58 AM,44.1,38.5,81,29.84,10.0,East,5.8,-,N/A,,Overcast,100,2013-03-23 07:58:00
3:53 AM,44.6,39.2,81,29.83,10.0,East,9.2,-,N/A,,Overcast,100,2013-03-23 08:53:00
3:58 AM,43.9,38.8,82,29.84,10.0,ESE,8.1,-,N/A,,Overcast,110,2013-03-23 08:58:00
4:13 AM,42.8,39.2,87,29.82,10.0,East,6.9,-,N/A,,Overcast,100,2013-03-23 09:13:00
4:28 AM,42.8,39.2,87,29.82,10.0,East,8.1,-,N/A,,Overcast,100,2013-03-23 09:28:00
4:58 AM,43.0,39.7,88,29.82,9.0,ESE,6.9,-,N/A,,Overcast,120,2013-03-23 09:58:00
5:03 AM,42.8,39.2,87,29.79,9.0,East,8.1,-,N/A,,Overcast,100,2013-03-23 10:03:00
5:18 AM,42.8,39.2,87,29.79,9.0,East,8.1,-,N/A,,Overcast,90,2013-03-23 10:18:00
5:43 AM,42.8,39.2,87,29.77,9.0,ENE,6.9,-,N/A,,Overcast,70,2013-03-23 10:43:00
5:58 AM,43.0,39.7,88,29.79,9.0,East,5.8,-,N/A,,Overcast,80,2013-03-23 10:58:00
6:03 AM,42.8,39.2,87,29.78,9.0,ENE,8.1,-,N/A,,Overcast,70,2013-03-23 11:03:00
6:33 AM,42.8,39.2,87,29.78,10.0,East,6.9,-,N/A,,Overcast,90,2013-03-23 11:33:00
6:53 AM,42.8,39.2,87,29.79,10.0,NE,5.8,-,N/A,Rain,Light Rain,50,2013-03-23 11:53:00
6:58 AM,43.7,39.7,86,29.81,10.0,East,3.5,-,0.00,Rain,Light Rain,80,2013-03-23 11:58:00
7:03 AM,42.8,39.2,87,29.82,9.0,Variable,1.2,-,N/A,Rain,Light Rain,0,2013-03-23 12:03:00
7:14 AM,42.8,41.0,93,29.79,9.0,NE,2.3,-,N/A,,Overcast,50,2013-03-23 12:14:00
7:34 AM,42.8,41.0,93,29.81,10.0,East,3.5,-,N/A,,Overcast,80,2013-03-23 12:34:00
7:54 AM,42.8,41.0,93,29.75,10.0,East,10.4,-,N/A,Rain,Light Rain,80,2013-03-23 12:54:00
7:58 AM,43.3,40.3,89,29.81,9.0,Variable,4.6,-,0.00,Rain,Light Rain,0,2013-03-23 12:58:00
8:10 AM,42.8,41.0,93,29.82,8.0,East,2.3,-,N/A,,Overcast,100,2013-03-23 13:10:00
8:58 AM,43.7,41.5,92,29.83,8.0,NNE,6.9,-,0.00,,Overcast,30,2013-03-23 13:58:00
9:06 AM,44.6,41.0,87,29.82,7.0,North,6.9,-,N/A,,Overcast,360,2013-03-23 14:06:00
9:46 AM,44.6,42.8,93,29.83,6.0,NNE,5.8,-,N/A,,Overcast,30,2013-03-23 14:46:00
9:58 AM,44.1,42.8,95,29.84,7.0,North,5.8,-,N/A,,Overcast,10,2013-03-23 14:58:00
9:59 AM,44.6,42.8,93,29.83,7.0,North,6.9,-,N/A,,Overcast,10,2013-03-23 14:59:00
10:58 AM,44.4,42.8,94,29.84,5.0,ENE,5.8,-,N/A,,Overcast,60,2013-03-23 15:58:00
11:03 AM,44.6,42.8,93,29.83,4.0,NE,6.9,-,N/A,,Overcast,50,2013-03-23 16:03:00
11:48 AM,44.6,44.6,100,29.83,3.0,NE,8.1,-,N/A,,Overcast,40,2013-03-23 16:48:00
11:53 AM,44.6,44.6,100,29.83,2.5,NE,5.8,-,N/A,,Overcast,40,2013-03-23 16:53:00
11:54 AM,44.6,44.6,100,29.83,2.5,NE,6.9,-,N/A,,Overcast,40,2013-03-23 16:54:00
11:58 AM,44.6,44.2,99,29.84,3.0,NNE,8.1,-,0.00,,Overcast,30,2013-03-23 16:58:00
12:09 PM,44.6,44.6,100,29.82,3.0,NNE,10.4,-,N/A,,Overcast,30,2013-03-23 17:09:00
12:29 PM,44.6,44.6,100,29.82,5.0,NNE,6.9,-,N/A,,Overcast,30,2013-03-23 17:29:00
12:44 PM,44.6,44.6,100,29.80,8.0,NE,8.1,-,N/A,,Overcast,40,2013-03-23 17:44:00
12:58 PM,45.7,43.7,93,29.82,8.0,NE,8.1,-,0.00,,Overcast,40,2013-03-23 17:58:00
1:23 PM,46.4,42.8,87,29.79,10.0,NE,9.2,-,N/A,,Overcast,50,2013-03-23 18:23:00
1:58 PM,46.4,43.2,88,29.79,10.0,NE,11.5,-,N/A,,Overcast,50,2013-03-23 18:58:00
2:18 PM,46.4,42.8,87,29.77,10.0,NE,10.4,-,N/A,,Overcast,40,2013-03-23 19:18:00
2:28 PM,46.4,42.8,87,29.77,10.0,NE,9.2,-,N/A,,Overcast,40,2013-03-23 19:28:00
2:58 PM,46.4,42.8,87,29.75,10.0,NE,10.4,-,N/A,,Overcast,40,2013-03-23 19:58:00
3:33 PM,46.4,42.8,87,29.74,10.0,NNE,10.4,-,N/A,,Overcast,30,2013-03-23 20:33:00
3:58 PM,46.9,42.6,85,29.74,10.0,NE,6.9,-,N/A,,Overcast,50,2013-03-23 20:58:00
4:58 PM,49.8,43.0,77,29.72,10.0,NE,10.4,-,N/A,,Overcast,40,2013-03-23 21:58:00
5:13 PM,50.0,42.8,76,29.71,10.0,NE,12.7,-,N/A,,Overcast,40,2013-03-23 22:13:00
5:18 PM,50.0,42.8,76,29.71,10.0,NE,13.8,-,N/A,,Overcast,40,2013-03-23 22:18:00
5:43 PM,48.2,42.8,82,29.69,10.0,NE,13.8,-,N/A,,Overcast,40,2013-03-23 22:43:00
5:53 PM,48.2,42.8,82,29.69,10.0,NNE,13.8,-,N/A,,Overcast,30,2013-03-23 22:53:00
5:58 PM,48.2,42.4,80,29.70,10.0,NNE,12.7,-,N/A,,Overcast,30,2013-03-23 22:58:00
6:58 PM,46.4,41.9,84,29.70,10.0,NE,12.7,-,N/A,,Overcast,40,2013-03-23 23:58:00
7:58 PM,44.4,39.9,84,29.81,10.0,NNW,20.7,26.5,N/A,,Overcast,340,2013-03-24 00:58:00
8:10 PM,42.8,39.2,87,29.83,10.0,North,18.4,26.5,N/A,,Overcast,350,2013-03-24 01:10:00
8:25 PM,41.0,39.2,93,29.84,10.0,NNW,23.0,28.8,N/A,Rain,Light Rain,340,2013-03-24 01:25:00
8:56 PM,41.0,39.2,93,29.87,10.0,NNW,17.3,-,N/A,,Overcast,340,2013-03-24 01:56:00
8:58 PM,40.1,38.8,95,29.88,10.0,NNW,18.4,-,0.00,,Overcast,340,2013-03-24 01:58:00
9:03 PM,41.0,37.4,87,29.88,10.0,NNW,16.1,-,N/A,,Overcast,340,2013-03-24 02:03:00
9:07 PM,41.0,37.4,87,29.87,10.0,North,16.1,23.0,N/A,Rain,Light Rain,350,2013-03-24 02:07:00
9:37 PM,39.2,37.4,93,29.92,9.0,NNW,19.6,24.2,N/A,Rain,Light Rain,330,2013-03-24 02:37:00
9:50 PM,39.2,37.4,93,29.94,10.0,NNW,19.6,-,N/A,,Overcast,330,2013-03-24 02:50:00
9:58 PM,39.0,37.0,93,29.96,10.0,NNW,15.0,-,0.00,,Overcast,330,2013-03-24 02:58:00
10:03 PM,39.2,37.4,93,29.94,10.0,NW,16.1,-,N/A,,Overcast,320,2013-03-24 03:03:00
10:13 PM,39.2,37.4,93,29.94,10.0,NNW,19.6,24.2,N/A,,Overcast,330,2013-03-24 03:13:00
10:28 PM,39.2,37.4,93,29.96,10.0,NNW,26.5,33.4,N/A,,Overcast,330,2013-03-24 03:28:00
10:58 PM,38.5,33.4,82,29.96,10.0,NNW,18.4,27.6,N/A,,Mostly Cloudy,340,2013-03-24 03:58:00
11:03 PM,37.4,32.0,81,29.94,10.0,North,16.1,27.6,N/A,,Scattered Clouds,350,2013-03-24 04:03:00
11:33 PM,37.4,32.0,81,29.97,10.0,NW,25.3,28.8,N/A,,Mostly Cloudy,320,2013-03-24 04:33:00
11:48 PM,37.4,32.0,81,29.97,10.0,NW,21.9,-,N/A,,Scattered Clouds,320,2013-03-24 04:48:00
11:58 PM,36.3,30.6,80,30.01,10.0,NW,23.0,36.8,N/A,,Scattered Clouds,320,2013-03-24 04:58:00